EHI
0 0 0 0 0 0 0 0 0 0 0 1 4 8 11 15 19 19 15 12 11 10 9 9 8 10 10 8 5 3 2 1 1 1 0 0 0 0 0 0 0 0 0 0
0 0 0 0 0 0 0 0 0 0 0 1 3 5 8 12 15 15 12 10 10 9 9 8 8 9 9 6 3 1 1 0 0 0 0 0 0 0 0 0 0 0 0 0
0 0 0 0 0 0 0 0 0 0 0 0 1 2 4 6 9 10 11 9 8 8 7 7 7 7 7 4 2 0 0 0 0 0 0 0 0 0 0 0 0 0 0 0
0 0 0 0 0 0 0 0 0 0 0 0 0 0 1 2 3 6 9 9 8 6 6 6 5 5 5 3 2 1 0 0 0 0 0 0 0 0 0 0 0 0 0 0
0 0 0 0 0 0 0 0 0 0 0 0 0 0 0 0 1 2 5 7 7 6 5 4 3 3 3 3 3 2 1 1 1 0 0 0 0 0 0 0 0 0 0 0
0 0 0 0 0 0 0 0 0 0 0 0 0 0 0 0 0 1 2 4 5 5 5 3 1 1 2 4 5 5 4 3 2 1 0 0 0 0 0 0 0 0 0 0
0 0 0 0 0 0 0 0 0 0 0 0 0 0 0 0 0 0 1 2 3 4 3 1 0 0 2 5 7 7 6 5 3 1 0 0 0 0 0 0 0 0 0 0
0 0 0 0 0 0 0 0 0 0 0 0 0 0 0 0 0 0 0 1 2 2 1 0 0 0 2 6 10 10 9 5 3 1 0 0 0 0 0 0 0 0 0 0
0 0 0 0 0 0 0 0 0 0 0 0 0 0 0 0 0 0 0 1 1 1 0 0 0 1 3 7 11 12 9 5 2 1 0 0 0 0 0 0 0 0 0 0
0 0 0 0 0 0 0 0 0 0 0 0 0 0 0 0 1 0 0 0 0 1 1 1 1 2 4 9 11 10 6 3 1 0 0 0 0 0 0 0 0 0 0 0
0 0 0 0 0 0 0 0 0 0 0 0 0 0 0 0 0 0 0 0 0 1 2 2 2 3 5 9 10 6 3 1 0 0 0 0 0 0 0 0 0 0 0 0
0 0 0 0 0 0 0 0 0 0 0 0 0 0 0 0 0 0 0 0 0 0 1 2 2 2 3 6 6 4 3 2 0 1 1 2 1 1 0 0 0 0 0 0
0 0 0 0 0 0 0 0 0 0 0 0 0 0 0 0 0 0 0 0 0 0 0 1 1 1 1 2 2 2 2 1 0 1 2 3 2 1 0 0 0 0 0 0
0 0 0 0 0 0 0 0 0 0 0 0 0 0 0 0 0 0 0 0 0 0 0 0 0 1 1 0 0 1 1 0 1 2 3 3 2 1 0 0 0 0 0 0
0 0 0 0 0 0 0 0 0 0 0 0 0 0 0 0 0 0 0 0 0 0 0 0 1 1 1 0 0 0 0 1 2 3 3 3 2 1 0 0 0 0 0 0
0 0 0 0 0 0 0 0 0 0 0 0 0 0 0 0 0 0 0 0 1 1 1 1 2 1 0 0 0 0 0 1 3 3 3 3 2 1 0 0 0 0 0 0
0 0 0 0 0 0 0 0 0 0 0 0 0 0 0 0 0 0 0 0 1 1 2 3 3 1 0 0 0 0 1 2 3 3 3 3 2 1 0 0 0 0 0 0
0 0 0 0 0 0 0 0 0 0 0 0 0 0 0 0 0 0 0 0 0 1 3 4 3 1 0 0 0 0 1 3 3 3 3 3 2 1 0 0 0 0 0 0
0 0 0 0 0 0 0 0 0 0 0 0 0 1 1 1 0 0 0 0 0 2 3 3 2 0 0 0 0 0 1 2 2 2 2 2 2 1 0 0 0 0 0 0
0 0 0 0 0 0 0 0 0 0 0 0 0 1 1 1 0 0 0 0 0 1 2 1 0 0 0 0 0 0 1 1 1 1 1 1 1 0 0 0 0 0 0 0
0 0 0 0 0 0 0 0 0 0 0 0 0 0 0 0 0 0 0 0 0 0 0 0 0 0 0 0 0 0 0 0 0 0 0 0 0 0 0 0 0 0 0 0
0 0 0 0 0 0 0 0 1 0 0 0 0 0 0 0 0 0 0 1 1 0 0 0 0 0 0 0 0 0 0 0 0 0 0 0 0 0 0 0 0 0 0 0
0 0 0 0 0 0 0 0 0 0 0 0 0 0 1 1 0 0 0 1 1 0 0 0 0 0 0 0 0 0 0 0 0 0 0 0 0 0 0 0 0 0 0 0
0 0 0 0 0 0 0 0 0 0 0 0 0 0 1 1 0 0 0 1 1 0 0 0 0 0 0 0 0 0 0 0 0 0 0 0 0 0 0 0 0 0 0 0
0 0 0 0 0 0 0 0 0 0 0 0 0 0 1 1 0 0 0 0 0 0 0 0 0 0 0 0 0 0 0 0 0 0 0 0 0 0 0 0 0 0 0 0
0 0 0 0 0 0 0 0 0 0 0 0 0 0 0 0 0 0 0 0 0 0 0 0 0 0 0 0 0 0 0 0 0 0 0 0 0 0 0 0 0 0 0 0
Wind_Speed
3 0 5 10 9 9 5 2 3 4 1 4 4 3 2 3 5 6 7 8 7 7 6 7 7 7 7 7 7 5 5 4 4 3 2 2 2 1 1 1 2 3 3 3
3 8 14 11 9 6 3 2 3 2 2 4 4 2 2 2 5 6 7 8 7 7 7 7 7 6 6 7 6 5 5 4 4 2 2 2 2 2 1 1 1 2 3 3
8 11 9 7 7 4 2 4 4 2 3 4 4 3 2 1 1 3 5 6 8 11 10 9 8 7 6 6 6 6 5 5 4 3 3 3 3 3 3 2 1 0 1 2
7 10 7 5 4 2 2 3 5 4 4 1 2 1 3 2 2 3 5 7 9 9 9 8 8 8 7 6 6 5 5 5 4 4 4 4 3 2 1 0 0 2 2 0
6 5 4 5 5 3 4 3 4 4 5 3 4 2 4 2 4 6 8 10 10 10 11 10 10 10 8 8 7 6 6 5 4 5 6 6 4 2 1 2 3 3 3 3
8 7 4 5 3 4 9 5 5 6 5 4 1 1 5 5 7 7 8 11 11 11 10 9 9 8 7 7 7 7 7 5 5 5 6 6 5 4 3 3 3 2 2 3
7 7 5 2 1 2 4 6 5 6 6 3 2 1 8 7 7 8 10 12 12 12 11 10 10 10 9 9 8 7 7 6 5 6 5 5 5 5 4 3 2 2 2 2
3 8 5 2 4 5 3 8 7 4 3 3 2 4 8 6 7 8 8 10 12 12 11 12 12 11 11 10 9 8 8 6 6 6 5 5 5 4 3 3 3 2 1 1
5 6 4 3 3 5 2 2 7 7 3 1 4 5 7 2 4 6 8 10 12 12 12 11 11 11 11 10 10 10 9 7 7 6 5 5 5 4 4 3 3 2 2 2
7 4 5 3 3 3 4 5 5 6 6 2 3 4 5 5 6 7 9 10 11 11 11 11 11 11 10 9 8 9 9 8 7 6 5 5 5 5 4 3 3 2 2 1
4 4 3 3 1 2 2 3 5 4 6 6 3 7 8 11 9 10 12 12 13 13 13 11 10 10 10 9 9 9 8 7 6 6 5 5 5 4 4 3 3 3 2 2
2 5 1 3 3 1 2 4 6 5 3 5 5 9 7 11 10 11 11 12 12 13 12 11 11 10 10 10 10 9 9 8 7 6 5 5 5 5 4 3 3 3 3 3
2 6 3 4 6 3 0 2 5 6 5 4 5 8 4 6 8 10 11 11 11 11 11 10 10 11 11 10 10 9 9 8 7 6 6 5 5 5 4 4 4 3 3 3
3 4 7 8 8 5 3 3 4 6 4 5 7 7 5 7 9 9 11 12 12 12 13 12 11 10 10 10 10 9 8 7 7 7 6 6 6 6 5 5 4 4 4 4
4 2 2 4 5 5 5 6 5 5 9 9 10 9 11 12 12 12 11 11 12 12 12 14 13 11 10 10 9 8 8 7 7 7 7 6 6 5 5 5 5 4 4 4
4 3 1 3 3 3 4 6 5 5 6 7 6 7 8 7 6 7 10 13 14 14 14 14 13 12 12 12 10 9 8 8 7 7 7 6 6 5 5 5 5 4 4 4
2 4 3 3 5 3 4 6 4 3 3 5 7 9 5 5 8 11 11 13 15 14 14 15 14 14 13 12 11 11 9 7 7 7 6 6 6 6 6 5 4 4 4 4
5 4 3 1 2 3 8 5 3 2 1 1 4 5 8 9 8 8 10 13 13 13 13 13 12 11 10 9 9 9 8 8 8 7 6 6 6 6 5 5 5 5 4 4
5 6 3 2 2 5 6 4 1 3 3 5 2 3 4 4 5 1 4 9 13 13 12 11 11 10 9 10 9 9 8 7 7 7 7 7 7 6 5 6 6 5 4 4
3 4 4 3 2 5 4 6 4 4 2 6 4 3 5 6 4 4 4 6 9 9 9 9 9 8 9 9 9 10 8 8 8 8 7 7 6 6 6 7 6 5 4 5
2 2 3 3 3 5 5 7 4 3 3 4 4 3 3 3 6 6 4 5 7 8 8 9 10 9 10 9 9 9 8 9 8 6 6 6 6 6 6 5 4 5 5 5
4 3 2 2 3 6 4 3 2 4 3 1 3 4 2 0 0 3 5 6 7 7 7 8 9 7 6 8 9 8 8 7 6 5 5 6 5 5 5 5 5 5 5 5
3 5 5 5 6 4 2 3 3 4 2 0 2 3 3 3 2 3 4 6 6 6 6 6 7 7 5 6 8 8 7 5 5 5 5 5 5 4 4 5 5 4 4 4
3 2 3 1 3 3 2 1 2 3 3 2 3 3 3 5 3 4 4 5 5 4 4 4 6 6 4 4 5 5 4 4 4 4 4 3 3 4 4 4 4 4 5 5
6 4 3 2 3 1 2 2 3 3 3 5 5 5 4 5 3 4 4 5 5 5 4 5 5 5 4 4 3 3 3 4 4 3 3 3 3 3 4 4 5 6 6 7
5 7 8 7 8 6 4 3 3 3 3 5 6 5 3 5 4 4 5 4 4 4 4 4 4 3 3 3 2 2 3 4 4 3 3 3 3 3 3 4 5 8 10 12
Wind_Direction
284 84 246 242 225 226 243 234 252 254 235 99 106 133 168 162 141 144 144 136 139 139 141 144 142 126 122 116 119 125 119 115 110 99 102 101 103 109 107 130 136 130 122 111
331 262 248 250 260 257 229 206 251 273 139 104 102 110 149 168 167 163 156 153 150 142 147 154 150 143 139 136 138 138 132 129 125 127 132 133 124 117 120 101 106 134 135 135
223 249 262 259 266 238 216 191 201 184 86 66 96 49 37 3 103 156 165 166 159 161 162 164 159 158 153 153 157 146 143 135 131 120 95 77 64 53 44 36 19 333 156 145
245 257 270 284 269 197 229 204 156 130 103 17 62 113 277 218 215 193 181 176 173 170 167 169 166 162 163 164 154 144 143 135 129 117 105 105 106 104 115 145 12 8 25 66
255 267 271 270 252 172 160 114 103 102 106 70 29 97 283 204 207 209 188 186 184 178 177 178 174 169 167 164 157 155 144 137 131 120 117 110 107 118 99 64 48 25 20 30
256 266 246 242 264 158 138 94 59 50 66 48 323 138 263 222 206 195 188 184 184 180 180 179 174 163 166 166 161 157 147 147 140 127 122 122 122 115 92 71 57 38 32 37
290 285 269 250 3 98 117 95 38 9 17 290 276 236 249 231 206 185 185 184 182 178 177 176 174 172 172 173 171 162 152 153 149 137 134 134 132 124 124 124 101 83 57 39
249 285 267 215 182 189 189 134 148 178 210 271 292 249 257 238 205 190 182 179 176 178 179 181 180 177 176 177 171 162 160 159 157 151 149 145 138 133 137 139 134 127 140 169
198 254 274 230 190 154 129 127 152 131 128 110 278 287 301 233 189 183 179 175 181 183 182 183 180 177 177 177 175 170 165 161 162 159 152 151 151 149 154 154 144 152 178 190
179 228 279 258 65 33 140 141 96 115 140 190 275 262 241 220 197 186 183 183 185 182 181 182 179 177 177 175 169 163 160 161 164 160 160 159 161 162 163 160 163 173 187 188
170 170 302 18 104 195 87 99 111 118 144 150 210 259 222 202 195 188 190 187 183 180 180 181 178 174 169 163 161 161 162 160 164 165 163 157 164 163 160 165 179 184 194 205
165 128 193 270 281 257 164 164 141 144 183 161 171 259 245 192 194 187 190 188 186 181 178 174 169 164 162 163 164 167 168 168 173 171 166 168 169 164 166 180 194 198 210 224
127 116 99 337 334 346 39 182 148 132 126 155 169 254 259 182 192 192 187 184 182 176 171 164 163 167 168 167 168 171 173 174 172 165 165 169 173 176 187 200 209 210 216 232
119 128 160 190 216 212 233 227 168 131 147 195 209 223 226 201 196 195 187 183 179 174 171 167 169 173 172 171 171 172 175 172 166 163 165 175 187 191 198 205 210 216 219 228
87 114 193 224 220 189 214 237 220 190 185 189 217 208 213 205 198 196 186 178 172 171 173 174 174 175 173 171 172 171 172 171 165 163 171 188 195 196 199 205 214 222 225 229
81 114 50 310 272 243 260 267 258 238 209 208 201 223 225 197 183 178 176 173 175 179 181 179 176 174 175 176 176 173 174 175 167 170 184 191 193 197 204 211 214 216 226 238
112 114 96 285 309 360 289 266 253 247 219 178 191 220 191 163 178 181 178 177 180 182 180 179 179 180 180 180 175 176 178 172 170 178 188 191 193 201 210 212 207 215 226 231
136 117 133 188 23 244 244 247 228 156 16 110 177 185 167 179 186 180 173 174 180 179 178 180 179 180 180 176 174 171 167 168 175 184 194 197 197 207 212 208 214 224 224 229
141 133 139 140 206 267 284 309 320 104 16 6 92 152 147 109 78 42 191 169 173 177 176 177 177 174 171 173 172 163 168 173 181 193 202 203 199 203 204 209 220 223 223 235
77 104 123 132 166 239 263 306 318 87 34 349 29 94 117 94 115 237 217 166 165 168 166 165 164 160 167 175 164 163 173 178 193 201 204 201 196 198 205 214 222 223 222 234
51 57 136 163 191 259 280 310 6 116 227 312 14 47 91 148 201 212 171 152 154 159 163 160 158 165 177 170 161 171 179 195 203 197 194 197 199 203 210 217 222 227 231 241
171 163 187 155 174 244 295 10 108 195 226 315 30 40 53 169 144 136 142 138 137 140 145 151 156 168 169 160 160 173 194 204 190 185 192 202 206 212 211 215 231 231 229 243
190 187 177 186 211 242 246 196 191 165 179 179 65 31 69 83 92 106 122 127 130 136 143 149 152 155 160 166 167 182 203 185 175 182 199 207 211 218 219 217 230 239 236 238
235 181 148 194 254 249 247 196 153 162 166 158 111 91 98 99 100 99 103 103 102 103 117 128 135 143 161 171 171 184 174 160 165 189 210 215 220 237 242 237 232 234 240 243
208 168 153 204 239 261 279 209 171 143 124 98 88 86 89 95 99 120 123 120 120 110 101 108 126 144 162 160 166 173 167 158 170 192 210 223 231 242 254 253 243 239 237 230
200 180 177 201 199 174 202 200 155 127 119 110 104 83 81 116 124 121 116 116 115 109 103 101 112 129 147 150 164 182 175 165 174 201 224 229 235 244 251 264 280 265 256 260